Погода в Моравске-Будеевице

Чехия     49°03′06″N   15°48′32″E
темп.,
°C
ветер,
м/с
пор.,
м/с
влажн.,
%
обл.,
%
осадки,
мм/ч
давл.,
гПа
погр.,
м
18 мая, вт
вт1823:00+8зсз916821 0.0 1009841
02:00+8зсз8168510 0.0 1010820
05:00+8зсз8148299 0.0 10111009
08:00+9зсз8148175 0.1 10121065
11:00+12зсз10137062 0.1 10131485
14:00+13зсз8106692 0.3 10121509
17:00+13зсз687114 0.3 10121135
20:00+10сз3680100 0.3 1013116
19 мая, ср
ср1923:00+8зсз4108589 0.0 1014261
02:00+8зсз51185100 0.1 1015435
05:00+7зсз61287100 0.0 1015548
08:00+8зсз71080100 0.0 10161023
11:00+8зсз6983100 0.1 10161009
14:00+10сз5879100 0.7 1015997
17:00+11сз6977100 1.2 10151194
20:00+9сз51086100 1.6 1015436
20 мая, чт
чт2023:00+6сз3892100 0.0 1017148
02:00+5зсз41091100 0.0 1017173
05:00+5зсз51291100 0.0 1018255
08:00+8сз61184100 0.0 1018548
11:00+13ссз686295 0.3 10181728
14:00+12сз6871100 0.9 10191314
17:00+13сз797312 1.1 10191377
20:00+9сз510853 1.6 1021445
21 мая, пт
пт2123:00+7зсз511934 0.0 1024231
02:00+5зсз48940 0.0 1024147
05:00+4зсз33930 0.0 102451
08:00+9зсз35795 0.0 1023284
11:00+14зсз22574 0.0 10211294
14:00+16ююв224995 0.0 10191568
17:00+15ююв4457100 0.0 10171151
20:00+12юв41079100 0.0 1016277
22 мая, сб
сб2223:00+8вюв248799 0.0 101660
02:00+6в2293100 0.0 101517
05:00+6в239562 0.0 101369
08:00+10вюв588412 0.0 1012327
11:00+14сз2369100 0.0 1013890
14:00+16зсз7771100 0.4 10131150
17:00+10з61185100 0.3 1016448
20:00+10зюз51085100 0.6 1017392